Flag for Canada Weather past 2 weeks in Dryden, Ontario, Canada

Now
9 °F

Light snow. Mostly cloudy.


Feels Like: -7 °F
Forecast: -5 / 24 °F
Wind: 13 mph from Northwest

Location: Dryden Airport

Current Time: Jan 29, 2015 at 7:29:33 AM

Latest Report: Jan 29, 2015 at 7:00 AM


Visibility: 9 mi

Pressure: 30.19 "Hg

Humidity: 85%

Dew point: 5 °F

Location of DrydenLocation

Historic Weather in Dryden — Graph

°F

Dryden temperature yesterday

Maximum temperature yesterday: 27 °F (at 12:54 AM)
Minimum temperature yesterday: 23 °F (at 11:00 PM)
Average temperature yesterday: 26 °F

Past Weeks' High & Low Weather Summary

 TemperatureHumidityPressure
High36 °F (Jan 23, 11:00 AM)100% (Jan 14, 10:54 PM)30.37 "Hg (Jan 14, 10:54 PM)
Low-17 °F (Jan 16, 7:55 AM)52% (Jan 25, 3:04 PM)29.37 "Hg (Jan 17, 1:02 PM)
Average15 °F88%29.93 "Hg
* Reported Jan 14 6:00 AM — Jan 29 6:00 AM, Dryden, Weather by CustomWeather, © 2014

Note: Actual official high and low records may vary slightly from our data, if they occured in-between our weather recording intervals... More about our weather records

Advertising

Dryden weather history for previous 24 hours

 ConditionsComfort  
Time TempWeatherWind HumidityBarometerVisibility
6:00 AM
Jan 29
10 °FLight snow. Overcast.9 mph85%30.15 "Hg4 mi
5:54 AM10 °FLight snow. Overcast.9 mph85%30.15 "Hg5 mi
5:00 AM10 °FLight snow. Overcast.7 mph92%30.12 "Hg5 mi
4:54 AM10 °FLight snow. Overcast.6 mph92%30.11 "Hg5 mi
4:00 AM12 °FLight snow. Overcast.10 mph85%30.09 "Hg9 mi
3:00 AM14 °FLight snow. Low clouds.9 mph92%30.04 "Hg9 mi
2:00 AM16 °FOvercast.8 mph93%30.01 "Hg9 mi
1:00 AM18 °FLow clouds.12 mph93%29.98 "Hg9 mi
12:00 AM19 °FOvercast.9 mph93%29.95 "Hg9 mi
11:00 PM
Jan 28
23 °FLow clouds.9 mph100%29.91 "Hg9 mi
10:00 PM27 °FMostly cloudy.7 mph93%29.88 "Hg9 mi
9:00 PM27 °FLight snow. Mostly cloudy.7 mph93%29.88 "Hg6 mi
8:55 PM27 °FLight snow. Mostly cloudy.8 mph93%29.88 "Hg6 mi
8:00 PM27 °FIce fog.6 mph100%29.87 "Hg5 mi
7:00 PM27 °FLight snow. Mostly cloudy.6 mph100%29.87 "Hg3 mi
6:00 PM27 °FLight snow. Mostly cloudy.6 mph100%29.86 "Hg2 mi
5:00 PM27 °FLight snow. Overcast.3 mph100%29.86 "Hg2 mi
4:57 PM27 °FLight snow. Overcast.3 mph100%29.86 "Hg2 mi
4:01 PM27 °FLight snow. Mostly cloudy.5 mph100%29.86 "Hg2 mi
3:01 PM27 °FLight snow. Low clouds.6 mph93%29.86 "Hg2 mi
2:00 PM27 °FLow clouds.6 mph93%29.87 "Hg9 mi
1:00 PM27 °FLow clouds.7 mph93%29.90 "Hg9 mi
12:00 PM27 °FLow clouds.6 mph93%29.91 "Hg9 mi
11:00 AM27 °FLow clouds.9 mph93%29.94 "Hg9 mi
10:00 AM27 °FLow clouds.8 mph93%29.96 "Hg9 mi
9:00 AM27 °FLow clouds.13 mph93%29.98 "Hg9 mi
8:00 AM25 °FLow clouds.5 mph100%30.00 "Hg9 mi
7:00 AM25 °FLow clouds.5 mph100%30.02 "Hg9 mi
Weather by CustomWeather, © 2014

See weather overviewHow to use our weather pages